Location: Home
(42.5358°N, 72.7383°W)
Time: 21:15:27
(UTC-05:00)

Vanguard 2 Rocket - Pass Details

Date: 30 November 2021
Orbit: 554 x 3325 km, 32.9° (Epoch: 21 January)

Event Time Altitude Azimuth Distance (km) Brightness Sun altitude
Rises 16:24:02 0° 183° (S) 3,244 10.2 -1.6°
Reaches altitude 10° 16:29:19 10° 140° (SE) 2,871 9.3 -2.5°
Maximum altitude 16:30:04 10° 133° (SE) 2,942 9.3 -2.6°
Drops below altitude 10° 16:30:51 10° 127° (SE) 3,045 9.3 -2.8°
Sets 16:38:29 0° 90° (E) 4,915 10.1 -4.0°
